This is the latest recevied weather packets stored in our database for station/object NN5DX-12. If no packets are shown the sender has not sent any weather packets the latest 10 day(s).
| Time | Temp. | Humidity | Pressure | Rain* | Wind** | Luminosity | Snow |
|---|---|---|---|---|---|---|---|
| 1777470916 | 2.22° C | 82% | 1022 hPa | 0 mm | - | - | - |
| 1777470616 | 1.67° C | 88% | 1021.5 hPa | 0 mm | - | - | - |
| 1777470316 | 1.11° C | 87% | 1021.4 hPa | 0 mm | - | - | - |
| 1777470016 | 0.56° C | 89% | 1021.4 hPa | 0 mm | - | - | - |
| 1777469716 | 0° C | 89% | 1020.7 hPa | 0 mm | - | - | - |
| 1777469416 | 0° C | 89% | 1020.7 hPa | 0 mm | - | - | - |
| 1777469116 | 0° C | 88% | 1020.6 hPa | 0 mm | - | - | - |
| 1777468816 | 0° C | 88% | 1020.7 hPa | 0 mm | - | - | - |
| 1777468516 | 0° C | 88% | 1021.8 hPa | 0 mm | - | - | - |
| 1777468216 | -0.56° C | 88% | 1021.2 hPa | 0 mm | - | - | - |
| 1777467916 | -0.56° C | 88% | 1021.3 hPa | 0 mm | - | - | - |
| 1777467616 | -0.56° C | 90% | 1021.2 hPa | 0 mm | - | - | - |
| 1777467317 | -1.11° C | 90% | 1021.2 hPa | 0 mm | - | - | - |
| 1777467016 | -1.11° C | 91% | 1021.2 hPa | 0 mm | - | - | - |
| 1777466716 | -1.67° C | 93% | 1020.6 hPa | 0 mm | - | - | - |
| 1777466417 | -1.67° C | 93% | 1020.6 hPa | 0 mm | - | - | - |
| 1777466116 | -1.67° C | 93% | 1020.1 hPa | 0 mm | - | - | - |
| 1777465816 | -2.22° C | 93% | 1020 hPa | 0 mm | - | - | - |
| 1777465516 | -2.22° C | 93% | 1020.1 hPa | 0 mm | - | - | - |
| 1777465216 | -2.22° C | 93% | 1020 hPa | 0 mm | - | - | - |
| 1777464916 | -2.78° C | 93% | 1019.4 hPa | 0 mm | - | - | - |
| 1777464616 | -2.78° C | 93% | 1019.4 hPa | 0 mm | - | - | - |
| 1777464316 | -2.78° C | 93% | 1019.3 hPa | 0 mm | - | - | - |
| 1777464016 | -2.22° C | 93% | 1019.3 hPa | 0 mm | - | - | - |
| 1777463716 | -2.22° C | 93% | 1019.2 hPa | 0 mm | - | - | - |
* Rain latest hour (hover to see other rain measurements)
** Current wind speed in m/s (hover to see current wind gust speed)